1512385200.71,58274,4.5,72666.0,-9.91,-11.59,-11.85,0,*5C
1512385201.99,58275,4.5,72666.5,-9.91,-11.55,-11.77,0,*5C
1512385203.25,58276,4.5,72672.0,-9.91,-11.41,-11.59,0,*56
1512385204.52,58277,4.5,72678.8,-9.91,-11.41,-11.59,0,*57
1512385205.8,58278,4.5,72674.3,-9.95,-11.37,-11.63,0,*54
1512385207.07,58279,4.5,72674.8,-9.95,-11.37,-11.77,0,*50
1512385208.35,58280,4.5,72668.3,-9.95,-11.37,-11.73,0,*52
1512385209.62,58281,4.5,72670.5,-9.95,-11.45,-11.63,0,*57
1512385210.86,58282,4.5,72662.8,-9.97,-11.45,-11.89,0,*52
1512385212.12,58283,4.5,72660.0,-9.95,-11.63,-12.03,0,*54
1512385213.41,58284,4.5,72662.0,-9.95,-11.63,-11.89,0,*52
1512385214.69,58285,4.5,72658.3,-9.95,-11.51,-11.77,0,*53
1512385215.95,58286,4.5,72656.0,-9.95,-11.45,-11.63,0,*50
1512385217.22,58287,4.5,72664.0,-9.97,-11.37,-11.63,0,*56
1512385218.45,58288,4.5,72668.5,-9.97,-11.23,-11.51,0,*5D
1512385219.7,58289,4.5,72668.8,-9.95,-11.19,-11.59,0,*5F
1512385220.93,58290,4.5,72668.5,-9.97,-11.19,-11.51,0,*5D
1512385222.16,58291,4.5,72672.0,-9.95,-11.11,-11.45,0,*53
1512385223.37,58292,4.5,72668.5,-9.97,-11.11,-11.45,0,*52
1512385224.63,58293,4.5,72678.5,-9.95,-10.97,-11.37,0,*5B
1512385225.86,58294,4.5,72672.3,-9.95,-11.19,-11.45,0,*5E
1512385227.09,58295,4.5,72670.0,-9.97,-11.11,-11.51,0,*50
1512385228.32,58296,4.5,72670.5,-9.97,-11.19,-11.51,0,*5B
1512385229.55,58297,4.5,72664.0,-9.97,-11.19,-11.59,0,*52
1512385230.76,58298,4.5,72664.5,-9.97,-11.11,-11.45,0,*58
1512385231.97,58299,4.5,72666.5,-9.97,-11.11,-11.45,0,*59
1512385233.18,58300,4.5,72668.8,-9.97,-11.11,-11.45,0,*58
1512385234.43,58301,4.5,72668.3,-9.95,-11.19,-11.59,0,*5E
1512385235.68,58302,4.5,72670.3,-9.95,-11.19,-11.59,0,*5D
1512385236.96,58303,4.5,72666.5,-9.95,-11.37,-11.63,0,*59
1512385238.22,58304,4.5,72668.5,-9.97,-11.37,-11.63,0,*5C
1512385239.49,58305,4.5,72672.5,-9.97,-11.33,-11.63,0,*59
1512385240.76,58306,4.5,72674.5,-9.97,-11.33,-11.63,0,*5A
1512385242.04,58307,4.5,72668.0,-9.95,-11.33,-11.59,0,*50
1512385243.3,58308,4.5,72668.8,-9.97,-11.33,-11.59,0,*5D
1512385244.58,58309,4.5,72670.5,-9.95,-11.33,-11.59,0,*5E
1512385245.81,58310,4.5,72670.8,-9.97,-11.23,-11.59,0,*55
1512385247.08,58311,4.5,72666.0,-9.99,-11.23,-11.63,0,*53
1512385248.34,58312,4.5,72670.3,-9.99,-11.23,-11.55,0,*55
1512385249.57,58313,4.5,72670.0,-9.97,-11.19,-11.59,0,*5F
1512385250.81,58314,4.5,72668.8,-9.97,-11.23,-11.59,0,*51
1512385252.04,58315,4.5,72664.8,-9.97,-11.23,-11.59,0,*50
1512385253.3,58316,4.5,72668.3,-9.97,-11.33,-11.59,0,*52
1512385254.56,58317,4.5,72674.8,-9.99,-11.23,-11.55,0,*50
1512385255.77,58318,4.5,72672.5,-9.97,-11.11,-11.45,0,*51
1512385257.03,58319,4.5,72678.3,-9.97,-11.07,-11.37,0,*52
1512385258.27,58320,4.5,72676.8,-9.97,-10.97,-11.37,0,*50
1512385259.53,58321,4.5,72680.8,-9.97,-11.07,-11.37,0,*59
1512385260.77,58322,4.5,72682.0,-9.97,-10.97,-11.33,0,*56
1512385262.0,58323,4.5,72686.5,-9.97,-10.97,-11.33,0,*57
1512385263.24,58324,4.5,72684.0,-9.97,-10.97,-11.37,0,*54
1512385264.5,58325,4.5,72686.0,-9.99,-10.97,-11.37,0,*5B
1512385265.71,58326,4.5,72690.8,-9.97,-10.93,-11.23,0,*57
1512385266.92,58327,4.5,72688.3,-9.97,-10.93,-11.23,0,*56
1512385268.2,58328,4.5,72688.8,-9.95,-11.07,-11.59,0,*5A
1512385269.46,58329,4.5,72688.0,-9.97,-11.37,-11.73,0,*52
1512385270.71,58330,4.5,72686.0,-9.97,-11.45,-11.63,0,*5E
1512385271.95,58331,4.5,72686.3,-9.97,-11.45,-11.73,0,*5E
1512385273.21,58332,4.5,72686.5,-9.97,-11.33,-11.63,0,*5D
1512385274.49,58333,4.5,72684.5,-10.01,-11.29,-11.63,0,*60
1512385275.71,58334,4.5,72684.8,-10.01,-11.15,-11.41,0,*68
1512385276.94,58335,4.5,72688.5,-9.99,-11.11,-11.41,0,*54
1512385278.18,58336,4.5,72686.0,-9.99,-11.11,-11.41,0,*57
1512385279.45,58337,4.5,72684.5,-10.01,-11.37,-11.63,0,*6B
1512385280.73,58338,4.5,72680.3,-9.99,-11.63,-11.85,0,*54
1512385282.0,58339,4.5,72678.3,-10.01,-11.67,-11.93,0,*6F
1512385283.29,58340,4.5,72676.5,-9.99,-11.67,-11.97,0,*5C
1512385284.56,58341,4.5,72676.8,-10.01,-11.77,-11.93,0,*61
1512385285.84,58342,4.5,72676.0,-9.99,-11.67,-11.93,0,*5A
1512385287.11,58343,4.5,72676.3,-10.01,-11.63,-11.81,0,*65
1512385288.37,58344,4.5,72674.5,-10.01,-11.63,-11.77,0,*6B
1512385289.64,58345,4.5,72672.8,-10.01,-11.55,-11.77,0,*6F
1512385290.9,58346,4.5,72672.8,-10.01,-11.51,-11.67,0,*69
1512385292.17,58347,4.5,72668.5,-10.01,-11.37,-11.55,0,*69
1512385293.42,58348,4.5,72672.8,-10.01,-11.29,-11.41,0,*6C
1512385294.64,58349,4.5,72672.3,-10.01,-11.15,-11.41,0,*62
1512385295.87,58350,4.5,72676.0,-10.03,-11.19,-11.45,0,*60
1512385297.12,58351,4.5,72672.8,-10.01,-11.01,-11.29,0,*60
1512385298.36,58352,4.5,72674.8,-10.01,-11.01,-11.29,0,*63
1512385299.61,58353,4.5,72678.5,-10.01,-11.01,-11.29,0,*62
1512385300.85,58354,4.5,72678.0,-10.01,-11.11,-11.37,0,*6B
1512385302.13,58355,4.5,72676.3,-9.99,-11.37,-11.63,0,*56
1512385303.39,58356,4.5,72678.8,-10.01,-11.51,-11.77,0,*69
1512385304.69,58357,4.5,72676.8,-10.03,-11.67,-11.85,0,*62
1512385305.95,58358,4.5,72680.0,-10.01,-11.63,-11.97,0,*68
1512385307.22,58359,4.5,72680.5,-10.01,-11.67,-11.93,0,*69
1512385308.49,58360,4.5,72680.0,-10.01,-11.63,-11.81,0,*64
1512385309.73,58361,4.5,72680.3,-10.05,-11.67,-12.03,0,*6C
1512385311.02,58362,4.5,72686.0,-10.03,-11.67,-11.97,0,*67
1512385312.31,58363,4.5,72686.5,-10.03,-11.59,-11.89,0,*64
1512385313.6,58364,4.5,72686.8,-10.03,-11.55,-11.73,0,*6A
1512385314.87,58365,4.5,72686.5,-10.05,-11.37,-11.63,0,*68
1512385316.14,58366,4.5,72690.0,-10.03,-11.41,-11.73,0,*6D
1512385317.42,58367,4.5,72694.3,-10.03,-11.55,-11.81,0,*64
1512385318.69,58368,4.5,72688.3,-10.05,-11.59,-11.85,0,*65
1512385319.96,58369,4.5,72690.5,-10.03,-11.45,-11.73,0,*66
1512385321.22,58370,4.5,72688.8,-10.05,-11.59,-11.77,0,*61
1512385322.49,58371,4.5,72692.5,-10.03,-11.41,-11.67,0,*6E
1512385323.73,58372,4.5,72692.5,-10.03,-11.19,-11.45,0,*60
1512385324.96,58373,4.5,72696.0,-10.05,-11.19,-11.51,0,*62
1512385326.19,58374,4.5,72688.5,-10.05,-11.11,-11.51,0,*6D
1512385327.46,58375,4.5,72688.5,-10.05,-11.33,-11.63,0,*6D
1512385328.72,58376,4.5,72688.3,-10.05,-11.33,-11.77,0,*6B
1512385329.99,58377,4.5,72690.0,-10.05,-11.59,-11.93,0,*6C
1512385331.28,58378,4.5,72688.8,-10.03,-11.59,-11.85,0,*62
1512385332.55,58379,4.5,72688.5,-10.03,-11.45,-11.81,0,*6A
1512385333.81,58380,4.5,72688.3,-10.05,-11.59,-11.77,0,*6E
1512385335.07,58381,4.5,72690.5,-10.05,-11.51,-11.77,0,*67
1512385336.33,58382,4.5,72690.5,-10.05,-11.37,-11.73,0,*60
1512385337.59,58383,4.5,72690.5,-10.05,-11.37,-11.73,0,*61
1512385338.86,58384,4.5,72686.3,-10.05,-11.59,-11.85,0,*67
1512385340.12,58385,4.5,72684.5,-10.05,-11.59,-11.85,0,*66
1512385341.38,58386,4.5,72684.3,-10.05,-11.51,-11.77,0,*60
1512385342.65,58387,4.5,72682.8,-10.05,-11.59,-11.89,0,*68
1512385343.93,58388,4.5,72680.0,-10.03,-11.59,-11.81,0,*69
1512385345.2,58389,4.5,72678.5,-10.05,-11.59,-11.77,0,*67
1512385346.46,58390,4.5,72682.0,-10.05,-11.37,-11.59,0,*6B
1512385347.67,58391,4.5,72680.0,-10.05,-11.23,-11.45,0,*62
1512385348.9,58392,4.5,72680.0,-10.05,-11.19,-11.37,0,*6D
1512385350.17,58393,4.44,72682.0,-10.05,-11.07,-11.37,0,*63
1512385351.46,58394,4.44,72686.0,-10.07,-11.07,-11.37,0,*66
1512385352.67,58395,4.5,72690.0,-10.05,-11.19,-11.45,0,*6F
1512385353.93,58396,4.5,72690.8,-10.05,-11.33,-11.59,0,*69
1512385355.23,58397,4.5,72690.0,-10.03,-11.29,-11.67,0,*68
1512385356.47,58398,4.5,72686.0,-10.05,-11.45,-11.73,0,*6E
1512385357.74,58399,4.5,72692.3,-10.05,-11.37,-11.63,0,*6B
1512385358.95,58400,4.5,72688.3,-10.05,-11.11,-11.45,0,*6C
1512385360.18,58401,4.5,72698.3,-10.05,-11.19,-11.59,0,*68
1512385361.45,58402,4.5,72698.3,-10.05,-11.33,-11.63,0,*6A
1512385362.69,58403,4.5,72696.0,-10.05,-11.23,-11.67,0,*6E
1512385363.94,58404,4.5,72698.3,-10.05,-11.45,-11.73,0,*6C
1512385365.18,58405,4.5,72698.0,-10.05,-11.45,-11.73,0,*6D
1512385366.45,58406,4.5,72698.8,-10.05,-11.59,-11.85,0,*6A
1512385367.71,58407,4.44,72694.3,-10.05,-11.73,-11.93,0,*64
1512385368.97,58408,4.5,72696.8,-10.05,-11.73,-11.93,0,*6B
1512385370.24,58409,4.5,72696.3,-10.05,-11.77,-12.07,0,*60
1512385371.5,58410,4.5,72688.8,-10.05,-11.67,-11.93,0,*67
1512385372.8,58411,4.5,72690.3,-10.03,-11.55,-11.73,0,*6F
1512385374.07,58412,4.5,72688.3,-10.07,-11.45,-11.63,0,*68
1512385375.34,58413,4.5,72682.8,-10.07,-11.33,-11.45,0,*6C
1512385376.59,58414,4.5,72680.5,-10.07,-11.19,-11.37,0,*66
1512385377.82,58415,4.5,72678.0,-10.09,-10.97,-11.23,0,*6B
1512385379.06,58416,4.5,72678.8,-10.07,-10.97,-11.19,0,*6F
1512385380.3,58417,4.5,72678.5,-10.07,-10.97,-11.11,0,*66
1512385381.54,58418,4.5,72674.8,-10.07,-10.93,-11.19,0,*65
1512385382.78,58419,4.5,72676.5,-10.07,-10.93,-11.19,0,*64
1512385384.02,58420,4.5,72676.8,-10.07,-10.93,-11.11,0,*66
1512385385.26,58421,4.5,72680.3,-10.07,-10.93,-11.19,0,*6F
1512385386.5,58422,4.5,72678.3,-10.05,-10.93,-11.37,0,*62
1512385387.77,58423,4.5,72672.8,-10.05,-11.33,-11.63,0,*69
1512385389.04,58424,4.44,72666.8,-10.07,-11.23,-11.63,0,*6D
1512385390.27,58425,4.5,72664.8,-10.05,-11.19,-11.51,0,*66
1512385391.53,58426,4.5,72664.8,-10.05,-11.37,-11.73,0,*69
1512385392.8,58427,4.5,72670.3,-10.05,-11.37,-11.63,0,*69
1512385394.04,58428,4.5,72670.5,-10.05,-11.23,-11.51,0,*62
1512385395.27,58429,4.44,72670.8,-10.05,-11.19,-11.51,0,*6A
1512385396.53,58430,4.5,72672.5,-10.05,-11.07,-11.37,0,*6D
1512385397.8,58431,4.5,72672.0,-10.05,-11.07,-11.37,0,*6C
1512385399.04,58432,4.5,72680.8,-10.05,-10.97,-11.37,0,*67
1512385400.28,58433,4.5,72680.8,-10.05,-10.97,-11.33,0,*62
1512385401.49,58434,4.5,72682.8,-10.05,-10.89,-11.15,0,*6E
1512385402.7,58435,4.5,72684.0,-10.05,-10.89,-11.15,0,*6F
1512385403.93,58436,4.5,72680.8,-10.03,-10.89,-11.19,0,*66
1512385405.2,58437,4.5,72680.0,-10.03,-10.93,-11.29,0,*6F
1512385406.47,58438,4.44,72672.8,-10.05,-11.07,-11.37,0,*65
1512385407.7,58439,4.5,72674.0,-10.03,-11.19,-11.41,0,*6C
1512385408.94,58440,4.5,72670.0,-10.05,-11.19,-11.51,0,*65
1512385410.18,58441,4.5,72664.8,-10.05,-11.07,-11.45,0,*6E
1512385411.42,58442,4.5,72666.8,-10.03,-11.01,-11.41,0,*69
1512385412.66,58443,4.5,72670.3,-10.03,-11.01,-11.19,0,*65
1512385413.88,58444,4.44,72666.0,-10.05,-10.97,-11.23,0,*63
1512385415.15,58445,4.5,72670.0,-10.03,-10.85,-11.07,0,*61
1512385416.41,58446,4.5,72668.5,-10.03,-10.75,-10.93,0,*61
1512385417.68,58447,4.5,72668.3,-10.03,-10.75,-11.01,0,*6A
1512385418.92,58448,4.44,72670.3,-10.01,-10.71,-11.01,0,*63
1512385420.17,58449,4.44,72670.0,-10.01,-10.79,-10.97,0,*64
1512385421.42,58450,4.44,72670.8,-10.01,-10.67,-10.97,0,*63
1512385422.67,58451,4.5,72674.8,-10.01,-10.71,-10.97,0,*65
1512385423.92,58452,4.44,72670.0,-10.01,-10.71,-10.97,0,*66
1512385425.16,58453,4.5,72674.5,-10.01,-10.71,-10.89,0,*68
1512385426.41,58454,4.5,72670.5,-10.01,-10.71,-10.97,0,*60
1512385427.67,58455,4.5,72670.0,-9.99,-10.79,-10.97,0,*50
1512385428.93,58456,4.5,72670.8,-9.99,-10.79,-10.89,0,*5C
1512385430.19,58457,4.5,72670.3,-9.99,-10.67,-10.89,0,*52
1512385431.43,58458,4.5,72670.5,-9.99,-10.57,-10.89,0,*5E
1512385432.69,58459,4.5,72670.0,-9.99,-10.71,-10.97,0,*54
1512385433.93,58460,4.5,72672.5,-9.97,-10.79,-11.19,0,*5F
1512385435.14,58461,4.5,72674.0,-9.97,-10.93,-11.23,0,*53
1512385436.34,58462,4.5,72678.3,-9.97,-10.85,-11.23,0,*57
1512385437.58,58463,4.5,72674.8,-9.97,-10.93,-11.33,0,*50
1512385438.81,58464,4.5,72678.3,-9.97,-10.93,-11.37,0,*53
1512385440.02,58465,4.5,72678.8,-9.97,-10.97,-11.45,0,*53
1512385441.29,58466,4.5,72676.3,-9.97,-11.07,-11.51,0,*5D
1512385442.55,58467,4.44,72676.8,-9.97,-11.07,-11.37,0,*5C
1512385443.78,58468,4.44,72676.3,-9.97,-10.97,-11.37,0,*5B
1512385445.02,58469,4.5,72682.3,-9.97,-10.97,-11.37,0,*5A
1512385446.23,58470,4.5,72680.8,-9.97,-10.93,-11.23,0,*53
1512385447.44,58471,4.5,72684.3,-9.97,-10.93,-11.23,0,*52
1512385448.68,58472,4.5,72686.3,-9.97,-11.11,-11.59,0,*57
1512385449.91,58473,4.5,72688.3,-9.97,-11.19,-11.59,0,*5E
1512385451.14,58474,4.5,72688.3,-9.97,-11.11,-11.51,0,*59
1512385452.34,58475,4.5,72688.5,-9.97,-11.19,-11.45,0,*55
1512385453.57,58476,4.44,72684.0,-9.97,-11.19,-11.59,0,*5B
1512385454.81,58477,4.44,72684.3,-9.97,-11.45,-11.81,0,*56
1512385456.07,58478,4.44,72682.5,-9.97,-11.59,-11.81,0,*54
1512385457.33,58479,4.5,72682.5,-9.97,-11.59,-11.77,0,*5C
1512385458.59,58480,4.44,72680.5,-9.97,-11.59,-11.81,0,*53
1512385459.85,58481,4.5,72678.5,-9.97,-11.81,-12.35,0,*5B
1512385461.08,58482,4.5,72674.8,-9.97,-11.73,-12.03,0,*50
1512385462.36,58483,4.44,72668.3,-9.99,-11.67,-11.97,0,*54
1512385463.62,58484,4.44,72664.8,-9.99,-11.77,-12.25,0,*58
1512385464.86,58485,4.5,72664.3,-10.01,-11.85,-12.25,0,*6D
1512385466.13,58486,4.5,72664.8,-10.01,-11.81,-12.07,0,*6A
1512385467.4,58487,4.5,72674.0,-10.01,-11.67,-11.93,0,*6D
1512385468.68,58488,4.5,72672.5,-9.99,-11.63,-11.81,0,*5C
1512385469.95,58489,4.5,72668.3,-10.01,-11.63,-11.85,0,*60
1512385471.19,58490,4.44,72670.8,-10.01,-11.41,-11.67,0,*64
1512385472.47,58491,4.44,72674.0,-10.01,-11.29,-11.63,0,*6F
1512385473.71,58492,4.44,72674.3,-10.01,-11.23,-11.51,0,*67
1512385474.93,58493,4.44,72672.3,-10.01,-11.23,-11.41,0,*67
1512385476.17,58494,4.5,72674.8,-10.01,-11.15,-11.51,0,*64
1512385477.44,58495,4.5,72674.0,-10.01,-11.29,-11.63,0,*6B
1512385478.72,58496,4.44,72672.8,-10.01,-11.29,-11.55,0,*6D
1512385479.93,58497,4.44,72672.0,-10.01,-11.15,-11.41,0,*66
1512385481.17,58498,4.44,72672.5,-10.01,-11.15,-11.37,0,*68
1512385482.41,58499,4.44,72670.8,-10.01,-11.11,-11.51,0,*6D
1512385483.68,58500,4.44,72670.8,-10.01,-11.29,-11.55,0,*63
1512385484.9,58501,4.5,72668.8,-10.01,-11.15,-11.41,0,*68
1512385486.14,58502,4.44,72664.3,-10.01,-11.15,-11.51,0,*6A
1512385487.4,58503,4.5,72666.5,-10.03,-11.15,-11.55,0,*6D
1512385488.64,58504,4.44,72664.5,-10.01,-11.11,-11.51,0,*68
1512385489.89,58505,4.5,72664.5,-10.01,-11.23,-11.63,0,*69
1512385491.14,58506,4.5,72666.3,-10.01,-11.23,-11.55,0,*6F
1512385492.37,58507,4.5,72668.0,-10.03,-11.19,-11.45,0,*64
1512385493.63,58508,4.5,72670.3,-10.03,-11.01,-11.33,0,*63
1512385494.89,58509,4.44,72668.3,-10.03,-10.93,-11.33,0,*68
1512385496.16,58510,4.44,72668.8,-10.03,-11.01,-11.29,0,*61
1512385497.43,58511,4.5,72666.3,-10.03,-11.07,-11.41,0,*68
1512385498.73,58512,4.44,72666.0,-10.03,-11.29,-11.59,0,*6E
1512385500.0,58513,4.5,72668.0,-10.01,-11.29,-11.63,0,*64
1512385501.24,58514,4.44,72666.8,-10.01,-11.15,-11.51,0,*6D
1512385502.48,58515,4.5,72668.0,-10.03,-11.15,-11.45,0,*6B
1512385503.74,58516,4.5,72668.0,-10.03,-11.15,-11.55,0,*69
1512385504.96,58517,4.5,72668.8,-10.05,-11.11,-11.45,0,*6B
1512385506.22,58518,4.5,72668.8,-10.03,-11.19,-11.59,0,*67
1512385507.48,58519,4.5,72668.5,-10.03,-11.19,-11.67,0,*6B
1512385508.75,58520,4.5,72670.8,-10.03,-11.41,-11.59,0,*61
1512385510.02,58521,4.44,72670.5,-10.03,-11.41,-11.67,0,*6D
1512385511.29,58522,4.44,72674.0,-10.01,-11.29,-11.63,0,*66
1512385512.51,58523,4.5,72676.5,-10.01,-11.15,-11.41,0,*68
1512385513.73,58524,4.44,72674.0,-10.01,-11.01,-11.41,0,*6A
1512385514.95,58525,4.5,72674.8,-10.01,-10.89,-11.15,0,*6B
1512385516.16,58526,4.44,72674.5,-10.01,-10.89,-11.11,0,*6C
1512385517.4,58527,4.5,72678.5,-10.01,-10.79,-11.01,0,*63
1512385518.65,58528,4.5,72672.5,-10.01,-10.79,-10.97,0,*62
1512385519.89,58529,4.44,72672.0,-10.01,-10.79,-10.97,0,*63
1512385521.16,58530,4.5,72676.5,-9.99,-10.71,-10.97,0,*5A
1512385522.37,58531,4.5,72676.5,-10.01,-10.85,-11.01,0,*67
1512385523.6,58532,4.5,72676.8,-9.99,-10.85,-11.11,0,*5C
1512385524.85,58533,4.44,72674.0,-10.01,-10.97,-11.29,0,*6C
1512385526.09,58534,4.44,72672.5,-10.01,-10.97,-11.37,0,*64
1512385527.31,58535,4.5,72676.3,-10.01,-10.97,-11.15,0,*65
1512385528.53,58536,4.44,72674.3,-10.01,-10.89,-11.15,0,*69
1512385529.76,58537,4.44,72674.0,-9.99,-10.85,-10.97,0,*56
1512385531.0,58538,4.5,72676.5,-9.99,-10.85,-10.97,0,*59
1512385532.22,58539,4.5,72676.8,-10.01,-10.85,-10.97,0,*61
1512385533.45,58540,4.44,72678.3,-9.99,-10.85,-10.97,0,*56
1512385534.7,58541,4.44,72678.3,-10.01,-10.79,-10.97,0,*6D
1512385535.91,58542,4.5,72680.0,-10.01,-10.85,-11.01,0,*63
1512385537.15,58543,4.44,72682.3,-10.01,-10.71,-11.01,0,*69
1512385538.37,58544,4.44,72680.0,-10.01,-10.85,-11.11,0,*64
1512385539.61,58545,4.5,72684.0,-9.99,-10.97,-11.41,0,*5A
1512385540.87,58546,4.5,72684.3,-9.99,-11.11,-11.29,0,*58
1512385542.1,58547,4.44,72682.3,-9.99,-11.11,-11.41,0,*57
1512385543.36,58548,4.44,72680.5,-9.99,-11.15,-11.51,0,*5D
1512385544.61,58549,4.44,72682.5,-9.99,-11.15,-11.51,0,*5C
1512385545.87,58550,4.44,72678.3,-9.99,-11.23,-11.51,0,*51
1512385547.11,58551,4.44,72680.0,-9.99,-11.23,-11.41,0,*51
1512385548.36,58552,4.5,72686.3,-9.99,-11.11,-11.51,0,*52
1512385549.62,58553,4.5,72684.0,-9.99,-11.11,-11.37,0,*53
1512385550.87,58554,4.5,72684.5,-9.99,-11.11,-11.37,0,*54
1512385552.13,58555,4.44,72680.3,-9.99,-11.15,-11.51,0,*51
1512385553.39,58556,4.5,72680.3,-9.99,-11.01,-11.29,0,*58
1512385554.64,58557,4.5,72680.5,-10.01,-11.01,-11.37,0,*6F
1512385555.89,58558,4.44,72682.8,-9.99,-11.11,-11.37,0,*58
1512385557.13,58559,4.5,72686.0,-10.01,-11.01,-11.37,0,*61
1512385558.35,58560,4.5,72678.8,-10.01,-11.01,-11.23,0,*6E
1512385559.59,58561,4.5,72676.8,-9.99,-10.97,-11.23,0,*58
1512385560.83,58562,4.5,72672.8,-9.99,-10.97,-11.23,0,*5B
1512385562.09,58563,4.44,72670.5,-9.99,-11.01,-11.37,0,*51
1512385563.35,58564,4.44,72670.3,-9.99,-11.11,-11.29,0,*58
1512385564.59,58565,4.5,72668.3,-10.01,-11.01,-11.37,0,*6E
1512385565.8,58566,4.5,72670.5,-10.01,-11.11,-11.41,0,*6D
1512385567.06,58567,4.5,72672.3,-9.99,-11.15,-11.51,0,*50
1512385568.3,58568,4.5,72670.8,-9.99,-11.23,-11.41,0,*5B
1512385569.54,58569,4.44,72668.5,-10.01,-11.15,-11.37,0,*67
1512385570.8,58570,4.44,72668.3,-9.99,-11.23,-11.55,0,*57
1512385572.09,58571,4.5,72672.8,-9.99,-11.29,-11.55,0,*5C
1512385573.36,58572,4.5,72672.0,-10.01,-11.29,-11.55,0,*66
1512385574.62,58573,4.5,72674.0,-9.99,-11.23,-11.51,0,*50
1512385575.85,58574,4.5,72670.5,-9.99,-11.15,-11.41,0,*53
1512385577.07,58575,4.5,72674.5,-10.01,-11.11,-11.41,0,*6F
1512385578.31,58576,4.5,72672.3,-10.01,-11.11,-11.29,0,*62
1512385579.57,58577,4.5,72668.8,-9.99,-11.11,-11.37,0,*55
1512385580.8,58578,4.44,72670.0,-9.99,-11.11,-11.41,0,*5B
1512385582.04,58579,4.44,72672.3,-10.01,-11.23,-11.51,0,*63
1512385583.29,58580,4.44,72672.5,-10.01,-11.23,-11.55,0,*61
1512385584.53,58581,4.5,72678.0,-10.01,-11.23,-11.55,0,*60
1512385585.76,58582,4.44,72676.3,-9.99,-11.11,-11.41,0,*5E
1512385586.98,58583,4.44,72680.3,-10.01,-11.15,-11.41,0,*62
1512385588.23,58584,4.44,72676.3,-10.01,-11.23,-11.55,0,*65
1512385589.5,58585,4.44,72676.3,-10.01,-11.55,-11.63,0,*60
1512385590.77,58586,4.44,72674.3,-10.01,-11.55,-11.67,0,*67
1512385592.03,58587,4.44,72674.3,-10.01,-11.63,-11.77,0,*62
1512385593.32,58588,4.44,72670.5,-10.03,-11.55,-11.73,0,*6E
1512385594.58,58589,4.5,72674.5,-10.05,-11.51,-11.77,0,*69
1512385595.85,58590,4.44,72672.3,-10.03,-11.45,-11.73,0,*66
1512385597.12,58591,4.44,72674.8,-10.03,-11.45,-11.73,0,*67
1512385598.37,58592,4.44,72670.3,-10.05,-11.45,-11.63,0,*63
1512385599.64,58593,4.44,72668.0,-10.03,-11.41,-11.59,0,*69
1512385600.91,58594,4.44,72670.8,-10.05,-11.37,-11.63,0,*60
1512385602.17,58595,4.44,72674.8,-10.05,-11.37,-11.73,0,*60
1512385603.43,58596,4.5,72672.8,-10.05,-11.33,-11.59,0,*6F
1512385604.67,58597,4.44,72674.3,-10.03,-11.19,-11.45,0,*6D
1512385605.91,58598,4.5,72672.3,-10.05,-11.23,-11.59,0,*60
1512385607.14,58599,4.5,72676.0,-10.05,-11.23,-11.51,0,*69
1512385608.4,58600,4.5,72678.3,-10.03,-11.15,-11.37,0,*69
1512385609.64,58601,4.5,72680.5,-10.05,-11.23,-11.51,0,*6B
1512385610.91,58602,4.5,72676.8,-10.03,-11.29,-11.41,0,*65
1512385612.17,58603,4.44,72674.8,-10.03,-11.19,-11.33,0,*62
1512385613.38,58604,4.44,72674.0,-10.05,-11.23,-11.45,0,*6B
1512385614.65,58605,4.5,72674.0,-10.05,-11.33,-11.51,0,*6E
1512385615.94,58606,4.5,72676.8,-10.03,-11.29,-11.55,0,*64
1512385617.18,58607,4.5,72676.3,-10.05,-11.11,-11.37,0,*6C
1512385618.45,58608,4.5,72676.5,-10.03,-11.07,-11.41,0,*63
1512385619.71,58609,4.5,72682.5,-10.05,-11.07,-11.37,0,*65
1512385620.94,58610,4.44,72678.3,-10.05,-11.19,-11.51,0,*62
1512385622.24,58611,4.44,72672.5,-10.03,-11.29,-11.55,0,*62
1512385623.5,58612,4.44,72672.0,-10.05,-11.33,-11.59,0,*60
1512385624.77,58613,4.5,72678.0,-10.05,-11.37,-11.63,0,*6C
1512385626.02,58614,4.5,72680.3,-10.05,-11.45,-11.63,0,*6E
1512385627.26,58615,4.44,72676.8,-10.05,-11.45,-11.73,0,*6E
1512385628.53,58616,4.44,72680.0,-10.03,-11.45,-11.73,0,*6B
1512385629.79,58617,4.44,72682.0,-10.05,-11.51,-11.77,0,*6D
1512385631.08,58618,4.44,72680.0,-10.07,-11.37,-11.63,0,*65
1512385632.37,58619,4.44,72680.0,-10.07,-11.33,-11.51,0,*61
1512385633.63,58620,4.44,72678.5,-10.07,-11.19,-11.37,0,*63
1512385634.92,58621,4.44,72680.5,-10.07,-11.07,-11.37,0,*6D
1512385636.16,58622,4.44,72682.0,-10.07,-11.11,-11.45,0,*6C
1512385637.42,58623,4.5,72686.5,-10.07,-11.11,-11.33,0,*6C
1512385638.7,58624,4.44,72682.8,-10.07,-11.07,-11.37,0,*68
1512385639.97,58625,4.44,72682.0,-10.07,-11.07,-11.23,0,*6C
1512385641.21,58626,4.44,72682.8,-10.07,-10.97,-11.19,0,*6E
1512385642.46,58627,4.44,72680.0,-10.07,-10.97,-11.19,0,*6F
1512385643.74,58628,4.44,72680.3,-10.07,-11.07,-11.33,0,*60
1512385645.03,58629,4.44,72682.3,-10.07,-11.07,-11.33,0,*61
1512385646.3,58630,4.44,72680.0,-10.07,-11.07,-11.23,0,*68
1512385647.54,58631,4.5,72684.3,-10.07,-10.97,-11.23,0,*61
1512385648.78,58632,4.44,72680.3,-10.07,-10.97,-11.11,0,*63
1512385650.02,58633,4.44,72678.8,-10.07,-10.97,-11.23,0,*63
1512385651.31,58634,4.5,72684.3,-10.07,-11.07,-11.33,0,*6D
1512385652.6,58635,4.44,72682.5,-10.07,-11.07,-11.33,0,*6C
1512385653.84,58636,4.5,72686.8,-10.05,-10.97,-11.37,0,*61
1512385655.05,58637,4.44,72686.0,-10.05,-11.11,-11.45,0,*6A
1512385656.26,58638,4.44,72686.3,-10.05,-11.19,-11.45,0,*6D
1512385657.56,58639,4.5,72686.3,-10.07,-11.33,-11.63,0,*62
1512385658.84,58640,4.44,72684.5,-10.07,-11.51,-11.77,0,*6D
1512385660.11,58641,4.44,72686.0,-10.07,-11.45,-11.77,0,*69
1512385661.38,58642,4.44,72684.5,-10.07,-11.45,-11.77,0,*6A
1512385662.66,58643,4.44,72686.3,-10.07,-11.59,-11.77,0,*66
1512385663.96,58644,4.5,72686.8,-10.07,-11.63,-11.85,0,*65
1512385665.24,58645,4.5,72684.3,-10.07,-11.59,-11.77,0,*60
1512385666.51,58646,4.5,72684.5,-10.09,-11.37,-11.59,0,*69
1512385667.77,58647,4.5,72684.0,-10.07,-11.23,-11.51,0,*6B
1512385669.04,58648,4.44,72682.8,-10.07,-11.23,-11.59,0,*6C
1512385670.28,58649,4.44,72684.0,-10.07,-11.23,-11.45,0,*60
1512385671.54,58650,4.5,72682.0,-10.07,-11.11,-11.33,0,*68
1512385672.78,58651,4.44,72684.0,-10.09,-11.23,-11.73,0,*62
1512385674.07,58652,4.44,72684.3,-10.07,-11.37,-11.73,0,*6A
1512385675.34,58653,4.44,72688.3,-10.09,-11.59,-11.85,0,*64
1512385676.63,58654,4.5,72692.0,-10.07,-11.77,-11.89,0,*6D
1512385677.93,58655,4.44,72690.3,-10.07,-11.77,-11.93,0,*67
1512385679.22,58656,4.44,72692.0,-10.07,-11.77,-12.07,0,*6A
1512385680.46,58657,4.44,72694.3,-10.09,-11.85,-12.21,0,*6C
1512385681.73,58658,4.44,72688.0,-10.07,-11.85,-12.21,0,*6D
1512385682.98,58659,4.44,72692.0,-10.09,-11.93,-12.21,0,*65
1512385684.26,58660,4.44,72690.5,-10.09,-11.93,-12.35,0,*6A
1512385685.55,58661,4.5,72692.3,-10.13,-11.89,-12.11,0,*6D
1512385686.81,58662,4.5,72696.8,-10.15,-11.81,-12.07,0,*67
1512385688.1,58663,4.44,72692.8,-10.13,-11.81,-11.97,0,*6A
1512385689.39,58664,4.44,72690.8,-10.13,-11.89,-12.07,0,*6F
1512385690.68,58665,4.5,72692.3,-10.13,-11.89,-12.07,0,*6E
1512385691.94,58666,4.44,72686.5,-10.15,-11.93,-12.15,0,*63
1512385693.18,58667,4.44,72686.8,-10.15,-11.97,-12.29,0,*69
1512385694.44,58668,4.44,72684.5,-10.13,-11.97,-12.39,0,*61
1512385695.68,58669,4.5,72688.8,-10.15,-12.15,-12.39,0,*6F
1512385696.89,58670,4.44,72690.3,-10.15,-12.25,-12.43,0,*69
1512385698.14,58671,4.44,72694.0,-10.19,-12.39,-12.71,0,*68
1512385699.38,58672,4.44,72692.8,-10.19,-12.25,-12.57,0,*62
1512385700.65,58673,4.44,72690.5,-10.21,-12.15,-12.43,0,*6E
1512385701.89,58674,4.44,72690.3,-10.21,-12.21,-12.47,0,*6A
1512385703.16,58675,4.44,72692.8,-10.21,-12.29,-12.57,0,*62
1512385704.43,58676,4.5,72694.5,-10.21,-12.29,-12.71,0,*65
1512385705.73,58677,4.44,72686.5,-10.21,-12.35,-12.71,0,*69
1512385706.99,58678,4.44,72688.0,-10.23,-12.35,-12.61,0,*65
1512385708.23,58679,4.44,72690.3,-10.23,-12.07,-12.43,0,*65
1512385709.47,58680,4.44,72686.5,-10.23,-12.03,-12.15,0,*64